Weather History for Pottstown, PA

Change the Weather History Date:

Thursday, March 7, 2013

  Actual Average (KRDG) Record (KRDG)
Temperature  
Mean Temperature 40 °F 38 °F  
Max Temperature 46 °F 47 °F 73 °F (1921)
Min Temperature 34 °F 28 °F 10 °F (1989)
Degree Days  
Heating Degree Days 25 27  
Month to date heating degree days 196  
Since 1 July heating degree days 4238  
Cooling Degree Days 0 0  
Month to date cooling degree days 0  
Year to date cooling degree days 0  
Moisture  
Dew Point 24 °F    
Average Humidity 53    
Maximum Humidity 64    
Minimum Humidity 43    
Precipitation  
Precipitation 0.00 in 0.10 in 1.45 in (1967)
Month to date precipitation 0.62  
Year to date precipitation 6.15  
Sea Level Pressure  
Sea Level Pressure 30.06 in    
Wind  
Wind Speed 11 mph (NNW)    
Max Wind Speed 17 mph    
Max Gust Speed 25 mph    
Visibility 10 miles    
Events      
T = Trace of Precipitation, MM = Missing Value Source: NWS Daily Summary

Daily Weather History Graph

Daily Weather History Graph

Search for Another Location

Airport:

Trip Planner

Search our weather history database for the weather conditions in past years. The results will help you decide how hot, cold, wet, or windy it might be!

Date:

Astronomy

Mar. 07, 2013 Rise Set
Actual Time 6:26 AM EST 6:00 PM EST
Civil Twilight 5:59 AM EST 6:27 PM EST
Nautical Twilight 5:27 AM EST 6:59 PM EST
Astronomical Twilight 4:56 AM EST 7:31 PM EST
Moon 3:24 AM EST (3/7) 1:45 PM EST (3/7)
Length of Visible Light 12h 28m
Length of Day
11h 34m
Waning Crescent, 20% of the Moon is Illuminated
Mar 7
Waning Crescent
Mar 11
New
Mar 19
First Quarter
Mar 27
Full
Apr 3
Last Quarter

Hourly Weather History & Observations

Time (EST) Temp. Windchill Dew Point Humidity Pressure Visibility Wind Dir Wind Speed Gust Speed Precip Events Conditions
12:54 AM 37.9 °F 30.0 °F 25.0 °F 60% 29.97 in 10.0 mi North 12.7 mph 17.3 mph N/A   Overcast
1:54 AM 37.9 °F 29.6 °F 25.0 °F 60% 29.98 in 10.0 mi North 13.8 mph 19.6 mph N/A   Overcast
2:54 AM 37.0 °F 29.8 °F 24.1 °F 59% 29.99 in 10.0 mi North 10.4 mph - N/A   Mostly Cloudy
3:54 AM 37.0 °F 29.8 °F 24.1 °F 59% 29.99 in 10.0 mi North 10.4 mph 20.7 mph N/A   Scattered Clouds
4:54 AM 36.0 °F 28.5 °F 23.0 °F 59% 30.01 in 10.0 mi North 10.4 mph - N/A   Clear
5:54 AM 34.0 °F 28.0 °F 23.0 °F 64% 30.02 in 10.0 mi NW 6.9 mph - N/A   Partly Cloudy
6:54 AM 34.0 °F 28.0 °F 23.0 °F 64% 30.03 in 10.0 mi NW 6.9 mph - N/A   Scattered Clouds
7:54 AM 37.0 °F 31.0 °F 24.1 °F 59% 30.05 in 10.0 mi North 8.1 mph - N/A   Mostly Cloudy
8:54 AM 39.0 °F 31.8 °F 24.1 °F 55% 30.07 in 10.0 mi North 11.5 mph 19.6 mph N/A   Overcast
9:54 AM 41.0 °F 33.9 °F 25.0 °F 53% 30.07 in 10.0 mi North 12.7 mph 24.2 mph N/A   Mostly Cloudy
10:54 AM 42.1 °F 35.7 °F 25.0 °F 51% 30.08 in 10.0 mi North 11.5 mph 18.4 mph N/A   Overcast
11:54 AM 44.1 °F 37.7 °F 26.1 °F 49% 30.06 in 10.0 mi NNW 12.7 mph - N/A   Overcast
12:54 PM 45.0 °F 37.6 °F 25.0 °F 46% 30.06 in 10.0 mi North 17.3 mph 20.7 mph N/A   Overcast
1:54 PM 46.0 °F 41.0 °F 25.0 °F 44% 30.04 in 10.0 mi NNW 10.4 mph 21.9 mph N/A   Overcast
2:54 PM 46.0 °F 39.9 °F 25.0 °F 44% 30.05 in 10.0 mi North 13.8 mph - N/A   Overcast
3:54 PM 44.1 °F 37.1 °F 24.1 °F 45% 30.07 in 10.0 mi NW 15.0 mph - N/A   Overcast
4:54 PM 44.1 °F 37.4 °F 23.0 °F 43% 30.07 in 10.0 mi NNW 13.8 mph 20.7 mph N/A   Overcast
5:54 PM 42.1 °F 36.1 °F 23.0 °F 47% 30.10 in 10.0 mi North 10.4 mph 18.4 mph N/A   Overcast
6:54 PM 41.0 °F 34.3 °F 24.1 °F 51% 30.12 in 10.0 mi North 11.5 mph - N/A   Overcast
7:54 PM 39.9 °F 34.5 °F 25.0 °F 55% 30.11 in 10.0 mi North 8.1 mph - N/A   Overcast
8:54 PM 41.0 °F 34.3 °F 23.0 °F 49% 30.11 in 10.0 mi North 11.5 mph - N/A   Overcast
9:54 PM 39.9 °F 34.5 °F 23.0 °F 51% 30.10 in 10.0 mi North 8.1 mph - N/A   Overcast
10:54 PM 39.0 °F 33.4 °F 24.1 °F 55% 30.10 in 10.0 mi North 8.1 mph - N/A   Overcast
11:54 PM 39.0 °F 30.3 °F 19.9 °F 46% 30.10 in 10.0 mi North 16.1 mph 25.3 mph N/A   Overcast